📊 Raw Sensor Data
Showing records 49051 to 49075 of 85,112 total
| ID | Distance (ft) | Battery V | Battery A | Int Temp (°F) | Int Humid (%) | Ext Temp (°F) | Solar V | RSSI | SNR | Time Stamp |
|---|---|---|---|---|---|---|---|---|---|---|
| 36074 | -- | 4.07 | 0 | 58 | 39 | 60 | 5.10 | -81 | 8 | 03/26/2025 08:45 AM |
| 36073 | -- | 4.12 | 64 | 57 | 39 | 60 | 4.50 | -80 | 7 | 03/26/2025 08:31 AM |
| 36072 | -- | 4.08 | 24 | 56 | 39 | 59 | 4.50 | -81 | 7 | 03/26/2025 08:15 AM |
| 36071 | -- | 4.08 | 10 | 55 | 39 | 57 | 4.50 | -81 | 8 | 03/26/2025 08:00 AM |
| 36070 | -- | 4.04 | 0 | 54 | 39 | 57 | 4.50 | -83 | 8 | 03/26/2025 07:45 AM |
| 36069 | -- | 4.02 | 0 | 54 | 40 | 56 | 4.50 | -80 | 8 | 03/26/2025 07:30 AM |
| 36068 | -- | 3.95 | -10 | 53 | 40 | 55 | 4.50 | -79 | 8 | 03/26/2025 07:15 AM |
| 36067 | -- | 3.95 | -9 | 53 | 40 | 54 | 4.00 | -80 | 8 | 03/26/2025 07:00 AM |
| 36066 | -- | 4.01 | -5 | 53 | 40 | 54 | 0.40 | -81 | 7 | 03/26/2025 06:45 AM |
| 36065 | -- | 3.96 | -5 | 54 | 40 | 54 | 0.00 | -80 | 7 | 03/26/2025 06:30 AM |
| 36064 | -- | 3.96 | -5 | 54 | 40 | 55 | 0.00 | -80 | 7 | 03/26/2025 06:15 AM |
| 36063 | -- | 3.96 | -5 | 54 | 40 | 55 | 0.00 | -79 | 8 | 03/26/2025 06:00 AM |
| 36062 | -- | 4.01 | -5 | 54 | 40 | 55 | 0.00 | -80 | 7 | 03/26/2025 05:45 AM |
| 36061 | -- | 3.96 | -5 | 54 | 39 | 55 | 0.00 | -81 | 8 | 03/26/2025 05:30 AM |
| 36060 | -- | 3.96 | -5 | 54 | 40 | 56 | 0.00 | -80 | 8 | 03/26/2025 05:15 AM |
| 36059 | -- | 3.96 | -5 | 54 | 39 | 56 | 0.00 | -80 | 7 | 03/26/2025 05:00 AM |
| 36058 | -- | 4.02 | -5 | 54 | 39 | 57 | 0.00 | -83 | 7 | 03/26/2025 04:45 AM |
| 36057 | -- | 3.97 | -5 | 53 | 40 | 57 | 0.00 | -80 | 8 | 03/26/2025 04:30 AM |
| 36056 | -- | 3.97 | -5 | 52 | 41 | 54 | 0.00 | -82 | 8 | 03/26/2025 04:15 AM |
| 36055 | -- | 4.00 | -29 | 52 | 41 | 52 | 0.00 | -82 | 7 | 03/26/2025 04:00 AM |
| 36054 | -- | 3.97 | -5 | 53 | 41 | 54 | 0.00 | -83 | 8 | 03/26/2025 03:30 AM |
| 36053 | -- | 4.02 | -5 | 53 | 41 | 54 | 0.00 | -83 | 8 | 03/26/2025 03:15 AM |
| 36052 | -- | 3.97 | -5 | 55 | 40 | 57 | 0.00 | -84 | 9 | 03/26/2025 02:45 AM |
| 36051 | -- | 3.97 | -5 | 56 | 40 | 58 | 0.00 | -83 | 8 | 03/26/2025 02:30 AM |
| 36050 | -- | 4.03 | -5 | 56 | 40 | 59 | 0.10 | -83 | 8 | 03/26/2025 02:15 AM |